[Iaude] MPEC L58: 2024 LB1 [a=0.96,e=0.50,i=25.4,H=23.6]

mpec at cfa.harvard.edu mpec at cfa.harvard.edu
Wed Jun 5 20:37:48 EDT 2024


M.P.E.C. 2024-L58                                  Issued 2024 June 6, 00:36 UT

     The Minor Planet Electronic Circulars contain information on unusual
         minor planets, routine data on comets and natural satellites,
         and occasional editorial announcements.  They are published
    on behalf of Division F of the International Astronomical Union by the
          Minor Planet Center, Smithsonian Astrophysical Observatory,
                          Cambridge, MA 02138, U.S.A.
			  
             Prepared using the Tamkin Foundation Computer Network

                              MPC at CFA.HARVARD.EDU
            URL https://www.minorplanetcenter.net/    ISSN 1523-6714

                                    2024 LB1                                    


Observations:
     K24L01B  C2024 06 01.53833318 01 27.784+18 10 06.77         20.15GVEL058F51
     K24L01B  C2024 06 01.55167218 01 15.467+18 07 00.77         20.32GVEL058F51
     K24L01B  C2024 06 01.56499918 01 03.228+18 03 55.42         20.65GVEL058F51
     K24L01B  C2024 06 01.57830418 00 50.999+18 00 49.29         20.46GVEL058F51
     K24L01B*1C2024 06 05.35819717 10 46.276+03 48 24.70         20.03GVEL058G96
     K24L01B 1C2024 06 05.36349717 10 42.434+03 47 17.66         19.99GVEL058G96
     K24L01B 1C2024 06 05.37407517 10 34.792+03 45 04.64         20.01GVEL058G96
     K24L01B KC2024 06 05.39995517 10 16.120+03 39 39.10         20.40GVEL058I52
     K24L01B KC2024 06 05.40234717 10 14.400+03 39 09.00         20.33GVEL058I52
     K24L01B KC2024 06 05.40261617 10 14.207+03 39 05.76         20.22GVEL058V06
     K24L01B KC2024 06 05.40326217 10 13.746+03 38 57.66         20.28GVEL058V06
     K24L01B KC2024 06 05.40390817 10 13.282+03 38 49.56         20.08GVEL058V06
     K24L01B KC2024 06 05.40455717 10 12.817+03 38 41.50         20.18GVEL058V06
     K24L01B KC2024 06 05.40568017 10 11.990+03 38 27.30         20.23GVEL058I52
     K24L01B  C2024 06 05.40896317 10 09.484+03 37 44.14         20.1 GVEL058H01
     K24L01B KC2024 06 05.41098117 10 08.200+03 37 20.80         20.09GVEL058I52
     K24L01B  C2024 06 05.41246517 10 06.986+03 37 00.30         20.3 GVEL058H01
     K24L01B  C2024 06 05.42288017 09 59.537+03 34 49.50         20.4 GVEL058H01
     K24L01B  C2024 06 05.43092117 09 53.804+03 33 08.72         19.8 GVEL058H01
     K24L01B 2C2024 06 05.98096817 03 44.151+01 40 21.73         19.6 GVEL058J04
     K24L01B 2C2024 06 05.98274917 03 42.890+01 40 00.60         19.8 GVEL058J04
     K24L01B 2C2024 06 05.98451817 03 41.672+01 39 38.91         19.7 GVEL058J04

Observer details:
F51 Pan-STARRS 1, Haleakala.  Observers J. Herman, T. Lowe, P. Minguez, A.
    Schultz, I. Smith.  Measurers K. Chambers, T. de Boer, J. Fairlamb, H.
    Gao, M. Huber, C.-C. Lin, E. Magnier, Y. Ramanjooloo, R. Wainscoat, R.
    Weryk.  1.8-m Ritchey-Chretien + CCD.
G96 Mt. Lemmon Survey.  Observer G. J. Leonard.  Measurers T. Beuden, V. F.
    Carvajal, D. Fay, J. B. Fazekas, D. C. Fuls, A. R. Gibbs, A. D. Grauer, H.
    Groeller, J. K. Hogan, R. A. Kowalski, S. M. Larson, G. J. Leonard, D.
    Rankin, R. L. Seaman, F. C. Shelly, K. W. Wierzchos.  1.5-m reflector +
    10K CCD.
H01 Magdalena Ridge Observatory, Socorro.  Observers W. H. Ryan, E. V. Ryan.
    Measurer W. H. Ryan.  2.4-m f/8.9 Ritchey-Chretien + CCD.
I52 Steward Observatory, Mt. Lemmon Station.  Observer T. Beuden.  Measurers
    T. Beuden, V. F. Carvajal, D. Fay, J. B. Fazekas, D. C. Fuls, A. R. Gibbs,
    A. D. Grauer, H. Groeller, J. K. Hogan, R. A. Kowalski, S. M. Larson, G.
    J. Leonard, D. Rankin, R. L. Seaman, F. C. Shelly, K. W. Wierzchos.  1.0-m
    prime focus + CCD.
J04 ESA Optical Ground Station, Tenerife.  Observers D. Abreu, M. Micheli, F.
    Ocana, L. Conversi.  Measurers M. Micheli, R. Kresken, F. Ocana.
    1.0-m f/4.4 reflector + CCD.
V06 Catalina Sky Survey-Kuiper.  Observer T. Beuden.  Measurers T. Beuden, V.
    F. Carvajal, D. Fay, J. B. Fazekas, D. C. Fuls, A. R. Gibbs, A. D. Grauer,
    H. Groeller, J. K. Hogan, R. A. Kowalski, S. M. Larson, G. J. Leonard, D.
    Rankin, R. L. Seaman, F. C. Shelly, K. W. Wierzchos.  1.55-m reflector +
    1K CCD.

Orbital elements:
2024 LB1                                                 Earth MOID = 0.1041 AU
Epoch 2024 Mar. 31.0 TT = JDT 2460400.5                 MPC                     
M  13.14638              (2000.0)            P               Q                  
n   1.04260367     Peri.   38.13242     -0.42457581     -0.80065847             
a   0.9632150      Node    80.76837     +0.68927314     -0.58856263             
e   0.4995477      Incl.   25.35681     +0.58705870     +0.11198231             
P   0.95           H   23.63          G   0.15           U   8                  
Residuals in seconds of arc
240601 F51  0.0   0.0     240605 I52  0.1-  0.2-    240605 H01  0.1+  0.0
240601 F51  0.2-  0.2-    240605 V06  0.1-  0.1-    240605 H01  0.1+  0.1-
240601 F51  0.2+  0.3+    240605 V06  0.0   0.1-    240605 H01  0.2+  0.0
240601 F51  0.0   0.1-    240605 V06  0.0   0.1-    240605 J04  0.2+  0.1-
240605 G96  0.2+  0.3+    240605 V06  0.0   0.0     240605 J04  0.2-  0.3+
240605 G96  0.1+  0.0     240605 I52  0.4-  0.0     240605 J04  0.2-  0.0
240605 G96  0.2+  0.1+    240605 H01  0.0   0.1-
240605 I52  0.1-  0.1-    240605 I52  0.1-  0.0

Ephemeris:
2024 LB1                 a,e,i = 0.96, 0.50, 25                  q = 0.4820
Date    TT    R. A. (2000) Decl.     Delta      r    Elong.  Phase     V
2024 05 07    23 24 44.5 +49 38 20   0.2628  0.8788    53.6   112.5    24.8
...
2024 05 22    20 53 47.4 +45 36 16   0.1474  1.0121    85.8    85.9    22.5
...
2024 05 30    18 41 24.5 +27 34 15   0.1120  1.0758   121.1    53.8    21.0
...
2024 06 05    17 15 01.3 +05 05 02   0.1180  1.1200   151.8    25.3    20.4
2024 06 06    17 03 30.2 +01 37 14   0.1220  1.1271   155.7    21.8    20.4
2024 06 07    16 52 49.7 -01 37 05   0.1269  1.1341   158.8    18.9    20.4
...
2024 06 13    16 04 16.6 -16 03 52   0.1679  1.1743   159.5    17.6    21.0
...
2024 06 21    15 28 41.6 -25 54 37   0.2411  1.2233   145.9    27.8    22.2
...
2024 07 06    15 05 33.7 -33 24 16   0.4017  1.3013   127.6    38.2    23.8

A. U. Tomatic                (C) Copyright 2024 MPC           M.P.E.C. 2024-L58





More information about the Iaude mailing list